Location: Bia?a Towarzystwo
(50.8667°N, 19.0667°E)
Time: 12:17:23
(UTC+00:00)

Daily predictions for brighter satellites

Satellite Brightness Start Highest point End
(mag) Time Altitude Azimuth Time Altitude Azimuth Time Altitude Azimuth
NOSS 3-2 (C) 4.2 17:52:38 10° NW 17:59:31 63° NE 18:07:56 10° ESE
COBE Rocket 3.9 17:59:48 10° NNE 18:04:44 76° E 18:09:46 10° S
Cosmos 1953 2.0 18:02:30 10° S 18:06:02 60° E 18:09:35 10° NNE
Cosmos 2333 Rocket 2.3 18:00:44 10° SSW 18:06:25 89° WNW 18:12:08 10° NNE
NOSS 3-2 (A) 4.3 18:00:53 10° NW 18:08:03 76° SW 18:16:44 10° SSE
NOSS 2-3 (D) 4.5 18:06:18 10° NW 18:10:53 51° NE 18:16:54 10° ESE
Cosmos 2181 Rocket 4.2 18:05:41 10° NNW 18:11:48 76° W 18:17:55 10° S
Meteor 2-5 Rocket 3.7 18:10:01 10° NNW 18:15:36 84° ENE 18:21:09 10° SSE
Cosmos 1703 Rocket 3.9 18:12:00 10° N 18:16:12 46° ENE 18:20:20 10° SSE
Iridium 82 4.0 18:13:37 10° N 18:16:40 66° E 18:19:38 10° SSE
Nadezhda 3 Rocket 4.0 18:12:31 10° N 18:18:42 72° ENE 18:24:50 10° SSE
SJ-6B 4.0 18:16:20 10° S 18:19:49 41° W 18:23:19 10° NNW
Cosmos 1470 Rocket 3.6 18:16:29 10° S 18:20:47 57° E 18:25:05 10° NNE
Exosat Rocket 4.1 18:16:25 10° NNW 18:21:57 85° WSW 18:29:25 10° SSE
ARIANE 6 FM1 Upper Stage 2.7 18:19:37 10° SSW 18:23:38 52° SE 18:27:35 10° NE
ERS-1 Rocket 3.2 18:19:13 10° SE 18:24:02 52° ENE 18:28:54 10° N
Lacrosse 5 rocket 2.2 18:22:46 10° S 18:25:03 18° SE 18:27:17 10° E
Okean 1-7 3.9 18:22:18 10° NNW 18:26:17 49° W 18:30:14 10° S
Cosmos 1943 Rocket 3.1 18:21:34 10° NNW 18:26:44 34° NE 18:31:28 12° ESE
Cosmos 1933 Rocket 4.3 18:24:27 10° SSE 18:28:20 32° E 18:32:15 10° NNE
USA 59 Rocket 1.8 18:26:59 10° N 18:28:30 13° NNE 18:30:07 10° NE
OPS 6432 4.3 18:30:01 10° NW 18:33:34 87° SW 18:36:18 14° SE
Cosmos 1441 Rocket 4.3 18:30:35 10° NNW 18:33:48 40° W 18:36:58 10° SSW
Cosmos 2154 Rocket 4.0 18:28:19 10° S 18:34:38 83° E 18:41:01 10° NNE
ATLAS 3B R/B 3.3 18:28:16 10° SW 18:35:59 75° NW 18:43:56 10° NE
USA 229 DEB 4.2 18:31:59 10° WSW 18:38:03 62° NW 18:44:59 10° NE
USA 229 4.1 18:32:02 10° WSW 18:38:06 62° NW 18:45:03 10° NE
Helios 1A Rocket 2.2 18:35:01 10° NNE 18:38:15 67° ESE 18:41:27 10° S
Aureole 1 Rocket 3.1 18:37:27 10° SW 18:40:37 52° WNW 18:43:34 10° NNE
Cosmos 494 Rocket 4.2 18:37:13 10° NNW 18:42:18 54° ENE 18:46:33 15° SE
Cosmos 2228 Rocket 4.1 18:37:59 10° NNW 18:42:21 50° W 18:46:38 10° SSW
SeaSat 1 4.5 18:41:18 10° ENE 18:44:14 16° NNE 18:47:10 10° N
Meteor 2-19 Rocket 4.4 18:38:45 10° N 18:44:58 79° E 18:51:07 10° SSE
Cosmos 2360 Rocket 2.5 18:39:54 10° SW 18:45:31 74° WNW 18:51:13 10° NNE
Okean-O 3.3 18:43:16 16° SE 18:46:20 36° ENE 18:50:22 10° N
CBERS 1 LM4 rocket 4.3 18:44:32 10° SSE 18:49:15 85° ENE 18:54:01 10° NNW
Meteor 1-16 Rocket 4.3 18:43:52 10° S 18:49:47 77° E 18:55:41 10° NNE
Cosmos 2098 4.3 18:49:41 10° SSW 18:52:42 73° W 18:55:43 10° N
Cosmos 2184 Rocket 4.4 18:46:29 10° SSW 18:52:51 71° WNW 18:59:13 10° N
Cosmos 2322 Rocket 2.8 18:47:57 10° SW 18:53:31 61° NW 18:59:05 10° NNE
BREEZE-M DEB (TANK) 4.4 18:45:15 10° W 18:55:34 63° SSW 18:57:56 21° SE
Cosmos 1633 Rocket 4.3 18:52:07 10° SSW 18:56:20 45° WNW 19:00:33 10° N
ADEOS 3.5 18:52:16 10° SSE 18:57:28 84° ENE 19:02:43 10° NNW
Cosmos 1869 Rocket 3.8 18:54:04 10° SSE 18:58:13 45° E 19:02:26 10° NNE
Feng Yun 1-1 Rocket 4.5 18:53:20 10° S 18:58:56 72° WSW 19:04:26 10° NNW
Terra 1.8 18:55:45 10° SSE 19:00:26 90° WSW 19:05:10 10° NNW
BREEZE-M DEB (TANK) 2.5 18:58:42 10° SW 19:00:55 43° SSE 19:02:46 21° E
SL-16 R/B 3.9 18:56:31 10° WSW 19:01:44 36° NW 19:06:58 10° NNE
MOS 1 4.4 18:57:03 10° S 19:02:42 77° WSW 19:08:23 10° NNW
ATLAS 5 CENTAUR R/B 3.8 19:01:39 10° NW 19:03:32 15° NNW 19:05:34 10° NNE
Cosmos 858 Rocket 4.4 18:58:46 10° SSW 19:03:58 68° ESE 19:09:12 10° NNE
CZ-4 R/B 2.5 19:01:54 10° SSW 19:05:29 39° W 19:09:04 10° NNW
Cosmos 2237 Rocket 3.5 19:05:50 19° ESE 19:06:07 19° E 19:09:57 10° ENE
Cosmos 1898 Rocket 3.9 19:01:15 10° SW 19:06:28 67° WNW 19:11:41 10° NNE
Cosmos 2242 Rocket 4.4 19:02:59 10° N 19:07:07 34° ENE 19:08:59 24° ESE
SL-08 R/B 3.4 19:03:57 10° NNE 19:08:47 60° ESE 19:13:37 10° S
Cosmos 2341 Rocket 4.1 19:03:05 10° SSE 19:09:06 55° E 19:15:14 10° NNE
Okean O Rocket 1.6 19:06:43 21° SSE 19:09:30 62° ENE 19:13:49 10° N
Cosmos 2322 3.9 19:04:06 10° S 19:09:32 48° ESE 19:15:01 10° NE
ASTEX 1 4.1 19:11:29 24° ESE 19:13:42 37° ENE 19:18:12 10° N
IRS-1A Rocket 4.2 19:09:22 14° SSE 19:14:16 89° ENE 19:19:58 10° NNW
Meteor 1-21 Rocket 4.2 19:09:18 10° N 19:14:52 66° ENE 19:18:43 21° SSE
CZ-4B R/B 3.4 19:16:53 30° E 19:17:45 34° ENE 19:20:59 10° N
Cosmos 1680 Rocket 3.7 19:13:10 10° NNW 19:18:22 67° WSW 19:22:22 17° S
Meteor 2-14 Rocket 4.4 19:15:40 10° N 19:21:45 68° ENE 19:25:52 22° SSE
Cosmos 2219 Rocket 2.6 19:16:29 10° SW 19:22:01 64° WNW 19:27:36 10° NNE
SPOT 3 Rocket 4.0 19:21:38 27° SE 19:24:08 47° ENE 19:29:06 10° N
Cosmos 1400 Rocket 4.3 19:28:36 18° ENE 19:28:36 18° ENE 19:30:16 10° NE
Cosmos 1937 Rocket 4.1 19:22:49 10° SW 19:28:03 61° WNW 19:33:19 10° NNE
USA 234 3.5 19:25:58 10° ENE 19:32:29 72° NNW 19:39:00 10° WSW
SL-24 R/B - RUBIN 2 4.2 19:28:44 10° NW 19:33:00 48° SW 19:35:17 26° S
USA 186 2.1 19:34:28 39° NW 19:34:28 39° NW 19:36:02 10° NNW
Cosmos 2112 Rocket 4.4 19:30:46 10° NNW 19:35:54 58° WSW 19:39:16 21° S
Cosmos 2369 Rocket 4.0 19:31:52 10° NNW 19:35:57 20° NE 19:39:12 13° ENE
SL-8 Rocket 3.9 19:30:28 10° S 19:36:42 86° E 19:43:02 10° N
COSMOS 2428 2.6 19:33:31 10° SSW 19:39:12 68° ESE 19:44:54 10° NNE
NOSS 0 Rocket 4.1 19:34:12 10° S 19:40:10 49° ESE 19:46:09 10° NE
USA 238 DEB 4.0 19:33:04 10° NW 19:40:19 74° NE 19:44:50 28° ESE
USA 238 4.0 19:33:13 10° NW 19:40:30 73° NE 19:45:00 28° ESE
CZ-4B R/B 4.2 19:35:24 10° S 19:40:41 46° W 19:46:06 10° NNW
Cosmos 1727 Rocket 4.2 19:34:36 10° N 19:40:53 56° ENE 19:43:48 31° SE
USA 245 3.4 19:40:43 45° SE 19:41:49 68° ENE 19:46:27 10° N
NOSS 2-3 (C) 4.5 19:37:06 10° NW 19:42:02 64° SW 19:45:27 28° SSE
Cosmos 1674 Rocket 4.1 19:38:22 10° N 19:42:25 38° ENE 19:43:00 36° E
Cosmos 2278 Rocket 2.1 19:39:34 10° NNW 19:45:18 85° ENE 19:47:49 35° SSE
Cosmos 2366 rocket 3.9 19:40:31 10° S 19:46:42 89° W 19:52:54 10° N
Ariane Rocket 3.1 19:46:48 38° SE 19:48:29 58° ENE 19:53:26 10° N
Helios 1B rocket 4.4 19:49:49 12° NE 19:49:49 12° NE 19:51:04 10° NNE
Spot 2 Rocket 4.1 19:53:55 22° S 19:57:01 53° W 20:01:57 10° NNW
USA 32 4.0 19:53:57 24° S 19:57:11 87° W 20:02:27 10° N
Cosmos 1346 Rocket 3.6 19:54:24 10° N 19:57:18 33° NE 19:57:18 33° NE
BREEZE-M DEB (TANK) 2.5 19:55:39 10° W 19:58:27 65° S 19:59:33 47° SE
CZ-2C R/B 2.9 20:00:39 45° N 20:00:39 45° N 20:02:51 10° N
Lacrosse 5 rocket 1.2 19:58:09 10° WSW 20:00:40 51° W 20:00:40 51° W
Cosmos 1378 Rocket 3.4 19:58:03 10° N 20:02:30 84° E 20:03:21 58° SSE
ARIANE 6 FM1 Upper Stage 4.3 19:59:02 10° W 20:02:47 34° NNW 20:06:29 10° NE
Cosmos 1656 Rocket 4.2 20:02:15 10° NNW 20:07:29 45° NE 20:08:57 36° E
Fengyun 1C 4.5 20:06:32 47° SSE 20:08:03 77° ENE 20:13:18 10° NNW
Cosmos 1943 Rocket 2.6 20:05:13 10° NW 20:10:45 55° WSW 20:12:58 34° S
Cosmos 2218 Rocket 4.3 20:06:05 10° SSW 20:12:11 66° WNW 20:18:19 10° N
Cosmos 614 Rocket 3.9 20:07:55 10° NNW 20:13:09 80° ENE 20:14:15 56° SE
SL-16 R/B 4.1 20:16:16 15° ENE 20:16:16 15° ENE 20:17:50 10° ENE
Meteor 1-11 4.3 20:08:50 10° NNW 20:14:24 71° W 20:16:33 37° S
Meteor 2-16 Rocket 4.4 20:10:35 10° N 20:16:47 80° E 20:18:48 45° SSE
Meteor 2-15 Rocket 4.3 20:13:49 29° S 20:17:06 89° W 20:23:14 10° N
Cosmos 2123 Rocket 4.1 20:11:21 10° N 20:17:32 59° ENE 20:19:09 45° SE
USA 59 Rocket 0.0 20:14:27 10° NW 20:17:17 54° NNE 20:17:17 54° NNE
Cosmos 1733 Rocket 3.2 20:18:20 45° SW 20:19:32 69° WNW 20:23:56 10° N
Cosmos 1934 Rocket 4.3 20:19:17 42° ESE 20:20:13 45° E 20:26:08 10° NNE
SeaSat 1 2.7 20:19:54 49° E 20:20:45 56° NE 20:25:34 10° NNW
Cosmos 192 4.3 20:18:37 27° SSW 20:21:17 79° WNW 20:26:14 10° NNE
CZ-4B R/B 3.6 20:20:21 45° SSW 20:21:41 63° WSW 20:26:28 10° NNW
IRS-1C Rocket 4.1 20:20:58 47° S 20:22:29 75° WSW 20:27:48 10° NNW
Okean-O 4.2 20:20:35 20° SW 20:22:40 29° W 20:26:31 10° NNW
NOSS 3-4 (A) 3.1 20:23:13 57° SE 20:23:25 57° SE 20:29:08 10° NE
NOSS 3-4 (C) 3.1 20:23:46 57° SE 20:23:55 57° SE 20:29:39 10° NE
Cosmos 1821 Rocket 4.2 20:22:24 22° SSW 20:26:38 70° WNW 20:32:59 10° N
ATLAS 3B R/B 4.4 20:20:50 10° W 20:28:00 37° NNW 20:35:12 10° NE
Cosmos 2239 Rocket 4.3 20:29:26 44° S 20:31:35 84° E 20:37:49 10° N
Timation 2 Rocket 4.4 20:28:09 10° NW 20:34:14 54° WSW 20:36:19 39° SSW
NOSS 2-1 (E) 4.0 20:32:59 10° NW 20:35:22 42° N 20:35:22 42° N
TIMED 4.5 20:32:44 10° NNW 20:36:44 77° NNW 20:36:44 77° NNW
NOSS 2-1 (C) 4.0 20:34:41 10° NW 20:36:58 43° NNW 20:36:58 43° NNW
Terra 4.4 20:36:28 10° WSW 20:38:39 13° W 20:40:51 10° WNW
NOSS 2-1 (D) 4.2 20:40:23 10° NW 20:42:32 42° NW 20:42:32 42° NW
SL-08 R/B 4.4 20:39:41 10° N 20:45:53 89° E 20:47:12 59° S
Okean O Rocket 3.9 20:43:57 13° WSW 20:46:05 17° W 20:49:01 10° NW
ATLAS 5 CENTAUR R/B 4.1 20:45:25 10° NNW 20:47:04 13° N 20:48:50 10° NE
Cosmos 1605 Rocket 4.4 20:48:09 42° E 20:48:09 42° E 20:53:49 10° NNE
Cosmos 2237 Rocket 2.1 20:47:31 44° SW 20:49:25 85° WNW 20:55:10 10° NNE
Cosmos 1025 Rocket 3.4 20:45:25 10° NNW 20:49:24 55° W 20:49:24 55° W
Cosmos 1980 3.7 20:47:57 37° SW 20:50:16 79° WNW 20:55:57 10° NNE
Cosmos 1125 Rocket 3.4 20:51:20 76° SSW 20:51:47 89° WNW 20:57:04 10° NNE
ALOS 2 4.4 20:52:17 21° NE 20:52:17 21° NE 20:55:15 10° NNE
Cosmos 2292 Rocket 4.3 20:47:37 10° NNW 20:53:20 55° W 20:54:03 50° SW
Cosmos 2297 4.3 20:49:10 10° NNW 20:54:43 47° NE 20:55:35 44° ENE
COSMOS 2455 4.5 20:53:49 10° NNW 20:58:53 27° NNE 21:02:09 17° ENE
ARIANE 5 R/B 4.0 21:02:50 29° NE 21:02:50 29° NE 21:05:54 10° N
Cosmos 1400 Rocket 4.2 21:03:02 31° WNW 21:03:02 31° WNW 21:05:56 10° N
Cosmos 1975 Rocket 3.9 21:01:06 10° N 21:04:32 44° NNE 21:04:32 44° NNE
Molniya-1 4.0 21:15:26 67° NNE 21:15:26 67° NNE 21:22:30 10° NE
USA 234 3.9 21:08:49 10° ENE 21:15:08 53° N 21:21:27 10° WNW
Cosmos 2369 Rocket 2.1 21:15:21 10° NNW 21:20:57 73° ENE 21:20:57 73° ENE
Cosmos 1908 Rocket 4.4 21:22:14 48° NW 21:22:14 48° NW 21:25:53 10° N
Helios 1B rocket 4.1 21:23:49 27° NNW 21:23:49 27° NNW 21:25:33 10° NNW
Cosmos 2263 4.3 21:21:33 10° NNW 21:27:10 64° ENE 21:27:12 64° ENE
Cosmos 2278 Rocket 4.1 21:24:50 10° WNW 21:28:37 19° W 21:29:39 18° WSW
Helios 1A 4.3 21:30:18 10° N 21:32:54 37° N 21:32:54 37° N
Spot 4 4.5 21:37:28 51° NNE 21:37:28 51° NNE 21:41:15 10° N
Cosmos 1153 Rocket 4.5 21:51:41 69° ENE 21:51:41 69° ENE 21:57:36 10° NNE
Cosmos 407 Rocket 4.3 21:49:43 10° NNW 21:54:15 44° NE 21:54:15 44° NE
Meteor 2-17 Rocket 4.3 21:50:50 10° N 21:56:56 86° NE 21:56:56 86° NE
SL-16 R/B 2.3 21:58:05 71° NNE 21:58:05 71° NNE 22:03:09 10° NNE
SJ 16-02 3.2 21:53:59 10° N 21:56:47 24° NE 21:56:47 24° NE
SeaSat 1 4.0 21:59:30 25° W 21:59:30 25° W 22:02:35 10° NW
CZ-2C R/B 3.6 22:02:52 39° ENE 22:02:57 39° ENE 22:08:02 10° N
Cosmos 2298 Rocket 4.4 22:03:45 63° NNW 22:03:45 63° NNW 22:08:24 10° NNE
Meteor 2-3 Rocket 4.2 21:58:28 10° N 22:03:34 50° ENE 22:03:34 50° ENE
BREEZE-M R/B 4.5 21:57:08 10° WSW 22:08:55 51° E 22:13:00 10° ENE
Cosmos 1140 Rocket 4.0 22:04:44 10° NNW 22:08:44 53° NW 22:08:44 53° NW
Cosmos 921 Rocket 4.4 22:05:29 10° NNW 22:08:19 38° NNW 22:08:19 38° NNW
NOSS 3-4 (A) 4.4 22:10:28 16° W 22:14:29 41° NNW 22:20:19 10° NE
NOSS 3-4 (C) 4.4 22:11:02 17° W 22:14:59 42° NNW 22:20:51 10° NE
Cosmos 2285 Rocket 4.4 22:19:16 50° W 22:20:19 56° WNW 22:26:35 10° NNE
ALOS 2 4.1 22:29:40 32° NW 22:29:40 32° NW 22:32:15 10° NNW
NOSS 3-1 (C) 3.9 22:21:36 10° NW 22:28:30 69° SW 22:28:44 69° SW
ATLAS 5 CENTAUR R/B 3.4 22:26:54 10° NNW 22:29:34 26° NNE 22:29:34 26° NNE
Cosmos 1816 Rocket 4.4 22:26:39 10° N 22:32:36 82° N 22:32:36 82° N
Cosmos 1459 Rocket 4.0 22:33:28 80° ENE 22:33:28 80° ENE 22:39:37 10° N
Cosmos 2237 Rocket 4.3 22:29:53 10° W 22:34:20 23° NW 22:38:48 10° NNE
Cosmos 2016 Rocket 4.2 22:42:33 64° E 22:42:33 64° E 22:48:36 10° NNE
USA 281 4.3 22:41:15 25° E 22:44:21 38° NE 22:50:18 10° NNW
Tsikada Rocket 4.2 22:38:41 10° N 22:45:00 62° ENE 22:45:06 62° E
COSMOS 2455 2.9 22:39:38 10° NW 22:45:16 75° N 22:45:16 75° N
Cosmos 44 4.1 22:51:59 55° N 22:51:59 55° N 22:56:24 10° NE
Cosmos 2173 Rocket 4.0 22:55:45 67° WNW 22:55:45 67° WNW 23:01:36 10° N
CZ-2C R/B 3.6 22:52:00 10° NNE 22:55:50 54° NNE 22:55:50 54° NNE
Meteor 2-1 Rocket 4.4 22:57:54 75° N 22:57:54 75° N 23:03:16 10° NNE
USA 234 3.5 22:51:16 10° E 22:57:44 66° NNE 23:04:12 10° WNW
Cosmos 2100 Rocket 4.1 23:00:25 61° WNW 23:00:25 61° WNW 23:06:26 10° N
Cosmos 2369 Rocket 4.0 23:00:14 10° NW 23:02:43 19° WNW 23:02:43 19° WNW
Cosmos 2251 Rocket 4.0 22:59:07 10° NNW 23:03:27 59° N 23:03:27 59° N
Cosmos 1603 4.2 23:06:32 53° ENE 23:06:32 53° ENE 23:11:05 10° NE
Cosmos 1656 3.9 23:04:04 10° NNW 23:08:53 63° NNE 23:08:53 63° NNE
Cosmos 2360 4.4 23:07:56 10° NNW 23:13:26 67° NE 23:13:26 67° NE
Cosmos 1954 Rocket 4.5 23:13:11 10° NNW 23:17:27 58° N 23:17:27 58° N
NOSS 3-1 (A) 3.9 23:12:40 10° NW 23:19:39 71° SW 23:19:58 70° SW
Cosmos 1943 3.6 23:21:35 55° NW 23:21:35 55° NW 23:27:08 10° NNE
Cosmos 1697 Rocket 3.9 23:17:27 10° NNW 23:22:43 38° NE 23:24:53 28° E
Cosmos 968 Rocket 4.2 23:21:22 10° NNW 23:26:22 46° ENE 23:26:37 46° ENE
Cosmos 2056 Rocket 4.3 23:27:50 45° ENE 23:27:50 45° ENE 23:32:10 10° NNE
Aureole 3 Rocket 4.3 23:34:51 39° NNE 23:34:51 39° NNE 23:38:06 10° NNE
SJ 16-02 3.4 23:31:44 10° NNW 23:33:16 21° NW 23:33:16 21° NW
Cosmos 1980 Rocket 4.1 23:33:11 10° NNW 23:38:02 28° NE 23:42:54 10° E
ACS3 Solar Sail 2.2 23:34:14 10° NNE 23:40:02 48° E 23:40:25 48° ESE
SL-16 R/B 4.1 23:39:53 17° WNW 23:42:22 23° NW 23:46:50 10° NNE
CZ-2C R/B 3.7 23:44:18 36° WNW 23:44:18 36° WNW 23:48:22 10° NNW
Cosmos 2151 4.3 23:42:14 10° N 23:45:06 37° NNE 23:45:06 37° NNE
Cosmos 1818 3.8 23:46:57 10° NW 23:51:37 65° NW 23:51:37 65° NW
